Hourly Weather Roundup
Issued by NWS

Home | Current Version | Previous Version | Text Only | Print | Product List | Glossary On
Versions: 1 2 3 4 5 6 7 8 9 10 11 12 13 14 15 16 17 18 19 20 21 22 23 24 25 26 27 28 29 30 31 32 33 34 35 36 37 38 39 40 41 42 43 44 45 46 47 48 49 50
736
NZUS43 KILX 271610
HWRCRS

NWR Hourly Weather Roundup
National Weather Service Lincoln IL
1100 AM CDT THU JUL 27 2017


CITY           SKY/WX    TMP DP  RH WIND       PRES   REMARKS
Champaign      CLOUDY    77  74  90 W8        29.95S
Lawrenceville  CLOUDY    79  74  84 NW7       29.97S HX  82
Peoria         CLOUDY    78  73  84 CALM      29.94S HX  81
Springfield    CLOUDY    77  76  96 W8        29.94S
$$


CITY           SKY/WX    TMP DP  RH WIND       PRES   REMARKS
Bloomington    CLOUDY    76  72  87 N8        29.96S
Danville       CLOUDY    76  74  92 SW6       29.92F
Decatur        CLOUDY    75  73  93 W7        29.94F
Effingham      CLOUDY    77  76  96 SW7       29.98S
Flora          CLOUDY    78  75  89 SW5         N/A  HX  81
Galesburg      CLOUDY    76  71  83 N5        29.97S
Jacksonville   RAIN      74  73  98 SW3       29.94S
Lacon          LGT RAIN  76  73  91 N3        29.94S
La Salle       CLOUDY    75  70  83 NE6       29.96S
Lincoln        CLOUDY    80  76  88 CALM      29.94S HX  85
Litchfield     CLOUDY    74  70  88 SW9       29.96F

CITY           SKY/WX    TMP DP  RH WIND       PRES   REMARKS
Macomb         CLOUDY    77  73  86 NE5       29.98S
Mattoon        CLOUDY    75  74  96 W9        29.95S
Moline         CLOUDY    77  70  79 N7        29.97S
Olney          CLOUDY    78  76  93 W3        29.98R HX  81
Paris          CLOUDY    74  72  92 W13       29.96F
Pontiac        CLOUDY    77  76  95 CALM      29.95S
Quincy         CLOUDY    78  74  87 NE8       29.95R HX  81
Rantoul        CLOUDY    80  75  86 W7        29.94S HX  84
Robinson       CLOUDY    77  73  88 W5        29.97F
Taylorville    CLOUDY    77  74  92 SW8       29.95F
Terre Haute    CLOUDY    76  71  85 W9        29.96F
$$


CITY           SKY/WX    TMP DP  RH WIND       PRES   REMARKS
Burlington     CLOUDY    77  73  87 NE10      29.97R
Chicago        PTSUNNY   82  69  64 NE10      29.95S HX  85
Des Moines     MOSUNNY   80  68  66 NE10      30.01S HX  83
Evansville     LGT RAIN  78  73  84 E3        29.98R HX  81
Indianapolis   CLOUDY    79  72  79 W12       29.94F HX  82
Kansas City    CLOUDY    77  74  90 N12       29.99F
Milwaukee      MOSUNNY   75  67  76 N18G24    29.99R
St Louis       CLOUDY    80  74  81 SW9       29.96F HX  85
$$





USA.gov is the U.S. government's official web portal to all federal, state and local government web resources and services.